Location: Water Valley
(37.5587°N, 89.1754°W)
Time: 14:10:05
(UTC+00:00)

Daily predictions for brighter satellites

Satellite Brightness Start Highest point End
(mag) Time Altitude Azimuth Time Altitude Azimuth Time Altitude Azimuth
Meteor PRIRODA 3.6 12:02:25 10° N 12:05:58 56° WNW 12:09:31 10° SSW
Cosmos 1092 Rocket 4.1 12:00:04 10° S 12:06:18 86° E 12:12:38 10° N
CZ-4B R/B 2.5 12:03:18 10° N 12:06:51 63° WNW 12:10:25 10° SSW
Cosmos 1805 Rocket 3.6 12:04:20 10° S 12:08:43 84° E 12:13:06 10° N
H-2A R/B 2.4 12:05:11 10° SSE 12:09:24 69° ENE 12:13:44 10° N
Cosmos 1538 Rocket 4.4 12:05:15 10° NNW 12:10:27 65° ENE 12:15:34 10° SSE
SMAP 3.4 12:06:40 10° NNE 12:11:20 72° ESE 12:15:58 10° S
SL-27 R/B 2.9 12:09:22 10° NNW 12:12:44 41° WSW 12:16:03 10° S
NOAA 11 4.5 12:08:53 10° N 12:14:05 46° WNW 12:19:17 10° SW
Cosmos 1340 Rocket 3.2 12:11:09 10° SSW 12:14:51 40° WNW 12:18:39 10° N
Cosmos 1515 3.7 12:11:55 10° N 12:15:44 88° E 12:19:32 10° S
CZ-2C R/B 3.1 12:13:56 10° N 12:18:44 51° WNW 12:23:44 10° SSW
SL-8 R/B 3.8 12:16:57 10° WNW 12:21:42 65° SW 12:26:25 10° SE
ATLAS 5 CENTAUR R/B 2.6 12:22:16 10° W 12:25:15 21° NW 12:28:29 10° N
H-2A R/B 3.2 12:20:38 10° NNE 12:25:22 47° E 12:30:08 10° S
Cosmos 1666 3.8 12:26:50 10° S 12:30:29 50° E 12:34:09 10° NNE
Okean O Rocket 4.1 12:26:52 10° NE 12:30:36 26° E 12:34:17 10° SSE
NOAA 12 4.1 22:57:25 10° SSE 23:02:43 75° ENE 23:08:02 10° N
Cosmos 1697 Rocket 2.7 22:58:35 10° NNW 23:04:13 75° ENE 23:09:49 10° SSE
Cosmos 1092 Rocket 4.1 22:58:09 10° N 23:04:29 65° E 23:10:43 10° SSE
BREEZE-M R/B 4.2 23:03:08 10° WNW 23:06:44 52° SW 23:15:21 10° SE
Cosmos 1898 Rocket 3.6 23:04:13 10° NNW 23:09:28 87° WSW 23:14:39 10° SSE
Cosmos 1980 Rocket 2.6 23:04:13 10° N 23:09:34 41° ENE 23:14:50 10° SE
SMAP 3.1 23:07:41 10° SSE 23:12:13 57° ENE 23:16:48 10° N
GPS 2-04 Rocket1 3.4 23:09:40 10° W 23:13:41 55° SSW 23:17:42 10° ESE
Cosmos 1602 3.7 23:10:04 10° N 23:13:56 76° E 23:17:48 10° S
CORIOLIS 4.3 23:09:40 10° SSE 23:14:55 55° ENE 23:20:13 10° N
FengYun 1-2 T 4.2 23:10:33 10° SSE 23:16:07 81° ENE 23:21:41 10° N
Cosmos 1743 Rocket 4.2 23:12:45 10° NNW 23:17:02 60° W 23:21:17 10° S
Cosmos 2369 3.7 23:11:25 10° NNW 23:17:07 62° ENE 23:22:45 10° SSE
ISS -2.6 23:14:34 10° NNW 23:17:30 26° NNE 23:20:24 10° E
CZ-4C R/B 3.4 23:13:08 10° NNW 23:20:08 42° NE 23:28:05 10° ESE
Meteor 2-21 4.4 23:14:35 10° N 23:20:38 65° E 23:26:36 10° SSE
Cosmos 2082 Rocket 2.4 23:16:37 10° SSW 23:22:17 77° WNW 23:27:59 10° NNE
Cosmos 1939 Rocket 2.9 23:19:21 10° SSE 23:23:28 88° E 23:27:33 10° N
SL-16 R/B 3.7 23:20:35 10° NNE 23:23:55 16° NE 23:27:08 10° E
Cosmos 2279 Rocket 4.1 23:18:47 10° SSE 23:24:48 55° E 23:30:49 10° NNE
Okean O Rocket 2.9 23:21:54 10° ESE 23:25:04 20° ENE 23:28:15 10° NNE
Cosmos 1328 Rocket 4.1 23:21:28 10° SSE 23:25:31 36° E 23:29:36 10° NNE
Cosmos 1627 Rocket 4.4 23:21:26 10° N 23:27:36 85° E 23:33:42 10° S
Cosmos 1666 Rocket 3.9 23:24:11 10° N 23:28:24 42° E 23:32:32 10° SSE
ARGOS 4.0 23:26:24 10° SE 23:30:54 28° ENE 23:35:24 10° N
Cosmos 44 Rocket 4.4 23:27:38 10° N 23:31:28 22° NE 23:34:46 12° E
Cosmos 1500 3.0 23:28:48 10° N 23:32:32 81° E 23:36:14 10° S
Cosmos 2208 Rocket 4.1 23:27:18 10° S 23:32:35 61° ESE 23:37:57 10° NNE
Cosmos 841 Rocket 4.3 23:29:08 10° SW 23:34:08 50° WNW 23:39:09 10° N
CZ-4B DEB 4.2 23:30:36 10° SSE 23:36:05 73° ENE 23:41:34 10° N
Cosmos 1782 3.7 23:32:15 10° SSW 23:36:08 51° W 23:40:02 10° N
CZ-2D R/B 3.3 23:32:47 10° SSE 23:36:30 52° ENE 23:40:14 10° N
Meteor 1-14 Rocket 4.4 23:31:17 10° N 23:37:04 58° ENE 23:42:56 10° SSE
CZ-2C R/B 4.4 23:32:56 10° SSW 23:37:34 40° W 23:42:03 10° NNW
MOS 1-B 4.4 23:32:07 10° SSE 23:37:42 54° ENE 23:43:19 10° N
Cosmos 2278 3.8 23:34:41 10° NNW 23:40:16 53° ENE 23:45:47 10° SE
ATLAS CENTAUR R/B 4.5 23:31:47 10° WSW 23:40:52 31° NW 23:45:12 10° NNE
H-2A R/B 2.1 23:35:51 10° SSE 23:40:54 56° ENE 23:45:51 10° N
SKYMED 2 3.8 23:41:10 10° NNE 23:45:24 50° E 23:49:36 10° S
Cosmos 1937 Rocket 4.3 23:40:34 10° NNW 23:45:46 56° WSW 23:50:56 10° S
USA 267 4.2 23:41:57 10° NNE 23:47:54 39° NNW 23:53:51 10° W
Sich 1 3.8 23:44:31 10° NNW 23:48:45 55° W 23:52:58 10° S
Cosmos 372 Rocket 4.1 23:44:30 10° NNW 23:49:46 84° WSW 23:55:00 10° SSE
Cosmos 2026 Rocket 4.4 23:45:32 10° NNW 23:51:33 63° W 23:57:30 10° S
Cosmos 1125 Rocket 4.3 23:48:03 10° N 23:52:30 27° ENE 23:56:50 11° ESE
deb Chang Zheng 4 3.8 23:51:12 10° SE 23:55:19 46° ENE 23:59:27 10° N
APEX 3.1 23:52:16 10° S 23:56:23 59° ESE 23:58:03 28° NE
